{"data":{"norad_id":50005,"intl_designator":"2021-124A","name":"TIANLIAN 2-02","alt_names":[],"object_type":"PAYLOAD","status":"ACTIVE","operator":null,"country":"PRC","launch_date":"2021-12-13","launch_site_code":"XICLF","launch_vehicle":null,"mission":null,"orbit_class":"UNKNOWN","rcs_meters":null,"size_class":null,"mass_kg":null,"dimensions":null,"purposes":["comms"],"wikipedia_slug":null,"has_3d_model":false,"image_url":null,"decayed_at":null,"tle_current":{"epoch":"2026-05-25T02:50:28.006944Z","epoch_age_seconds":67865,"freshness":"FRESH","line1":"1 50005U 21124A   26145.11837971 -.00000016  00000+0  00000+0 0  9991","line2":"2 50005   0.7441  86.4490 0001968 221.1396 148.6966  1.00271113 16392","mean_motion":1.00271113,"eccentricity":0.0001968,"inclination_deg":0.7441,"raan_deg":86.449,"arg_perigee_deg":221.1396,"mean_anomaly_deg":148.6966,"bstar":0,"rev_number":1639,"period_min":1436.1065285074,"perigee_km":35778.485291913,"apogee_km":35795.081404562,"semimajor_km":42164.920348237,"source":"CELESTRAK","updated_at":"2026-05-25T13:38:14.104949Z"}}}